Regional Weather Roundup
Issued by NWS

Home | Current Version | Previous Version | Text Only | Print | Product List | Glossary Off
Versions: 1 2 3 4 5 6 7 8 9 10 11 12 13 14 15 16 17 18 19 20 21 22 23 24 25 26 27 28 29 30 31 32 33 34 35 36 37 38 39 40 41 42 43 44 45 46 47 48 49 50

000
ASUS45 KCYS 150010
RWRWY

WYOMING REGIONAL WEATHER ROUNDUP
NATIONAL WEATHER SERVICE CHEYENNE WY
500 PM MST THU DEC 14 2017

NOTE:  "FAIR" INDICATES FEW OR NO CLOUDS BELOW 12,000 FEET
WITH NO SIGNIFICANT WEATHER AND/OR OBSTRUCTIONS TO VISIBILITY.

WYZ001-150100-
YELLOWSTONE NATIONAL PARK

CITY           SKY/WX    TMP DP  RH WIND       PRES   REMARKS
LK YELLOWSTONE   N/A     14  11  87 CALM      30.32F
6HR MIN TEMP:  14; 6HR MAX TEMP:  24;

W YELLOWSTONE  NOT AVBL

$$
WYZ002>013-054>058-071-098>099-150100-
NORTHERN WYOMING

CITY           SKY/WX    TMP DP  RH WIND       PRES   REMARKS
JACKSON        FAIR      26  17  68 S6        30.33F WCI  19
CODY           FAIR      33  15  47 CALM      30.21S
GREYBULL       FAIR      37  19  48 S6        30.21F WCI  32
6HR MIN TEMP:  37; 6HR MAX TEMP:  45;

WORLAND        FAIR      27  19  72 S12       30.23F WCI  17
6HR MIN TEMP:  27; 6HR MAX TEMP:  43;

SHERIDAN       FAIR      29  20  69 W6        30.17F WCI  23
6HR MIN TEMP:  27; 6HR MAX TEMP:  43;

BUFFALO        FAIR      33  17  51 W3        30.18F
6HR MIN TEMP:  31; 6HR MAX TEMP:  40;

GILLETTE       FAIR      22  17  81 SW7       30.17F WCI  13
6HR MIN TEMP:  20; 6HR MAX TEMP:  35; 6HR PCP: TRACE;

HULETT         FAIR      28  19  69 SW5       30.17F WCI  23
NEWCASTLE      FAIR      25  18  74 NW6       30.20S WCI  18

$$
WYZ014>020-022>026-101>103-150100-
CENTRAL WYOMING

CITY           SKY/WX    TMP DP  RH WIND       PRES   REMARKS
BIG PINEY      FAIR      25  17  72 E8        30.29R WCI  16
6HR MIN TEMP:  21; 6HR MAX TEMP:  36;

PINEDALE       FAIR      23  19  86 CALM      30.29S
DUBOIS         FAIR      32  -2  23 W18       30.22R WCI  20
LANDER         FAIR      29  17  61 CALM      30.22F
6HR MIN TEMP:  26; 6HR MAX TEMP:  35;

RIVERTON       FAIR      29  19  66 SW5       30.25F WCI  24
6HR MIN TEMP:  28; 6HR MAX TEMP:  34;

CASPER         FAIR      27  19  72 W13       30.22F WCI  16
6HR MIN TEMP:  27; 6HR MAX TEMP:  33;

DOUGLAS        MOCLDY    28  20  71 W10       30.21F WCI  19
6HR MIN TEMP:  28; 6HR MAX TEMP:  37;


$$
WYZ021-027>030-104>119-150100-
SOUTHERN WYOMING

CITY           SKY/WX    TMP DP  RH WIND       PRES   REMARKS
EVANSTON       FAIR      31  22  69 SW9       30.33F WCI  23
6HR MIN TEMP:  30; 6HR MAX TEMP:  37;

FORT BRIDGER   FAIR      33  11  40 W16       30.33F WCI  23
ROCK SPRINGS   FAIR      30  14  51 W9        30.29R WCI  22
6HR MIN TEMP:  28; 6HR MAX TEMP:  35;

DIXON          FAIR      25  16  68 CALM      30.34R
RAWLINS        FAIR      20  15  81 SW8       30.28S WCI  10
6HR MIN TEMP:  20; 6HR MAX TEMP:  30;

SARATOGA       FAIR      18  12  79 W9        30.30R WCI   6
LARAMIE        FAIR      19  11  70 NW10G18   30.20R WCI   7
6HR MIN TEMP:  18; 6HR MAX TEMP:  25; 6HR PCP: TRACE;

CHEYENNE       FAIR      26  16  65 NW16G23   30.17F WCI  14
6HR MIN TEMP:  25; 6HR MAX TEMP:  30; 6HR PCP:  0.03;

TORRINGTON     FAIR      30  18  60 N7        30.21S WCI  23
6HR MIN TEMP:  30; 6HR MAX TEMP:  37; 6HR PCP: TRACE;

PINE BLUFFS    FAIR      27  18  69 N9        30.20S WCI  17

$$



USA.gov is the U.S. government's official web portal to all federal, state and local government web resources and services.